Regional Weather Roundup
Issued by NWS

Home | Current Version | Previous Version | Graphics & Text | Print | Product List | Glossary On
Versions: 1 2 3 4 5 6 7 8 9 10 11 12 13 14 15 16 17 18 19 20 21 22 23 24 25 26 27 28 29 30 31 32 33 34 35 36 37 38 39 40 41 42 43 44 45 46 47 48 49 50
396
ASUS45 KSLC 181810
RWRUT

UTAH REGIONAL WEATHER ROUNDUP
NATIONAL WEATHER SERVICE SALT LAKE CITY UT
1100 AM MST SAT NOV 18 2017

UTZ001>011-023>025-181900-

NORTHERN UTAH

CITY           SKY/WX    TMP DP  RH WIND       PRES   REMARKS
BRIGHAM CITY   SUNNY     36  23  58 CALM      30.49R
HILL AFB       SUNNY     33  21  59 E8        30.47R WCI  27
LOGAN          SUNNY     37  22  54 CALM      30.46S
OGDEN          SUNNY     35  22  58 SE7       30.47R WCI  29
SALT LAKE CITY MOSUNNY   38  24  57 SE8       30.47R WCI  32
TOOELE VALLEY  SUNNY     36  27  69 S13       30.48R WCI  27
WENDOVER       SUNNY     35  25  66 E6        30.47R WCI  30
HEBER CITY       N/A     28  18  64 CALM      30.43F
WEST JORDAN    SUNNY     35  27  71 S10       30.48R WCI  28

$$

UTZ011>015-024>027-181900-

CENTRAL/NORTHEAST UTAH

CITY           SKY/WX    TMP DP  RH WIND       PRES   REMARKS
PROVO AIRPORT  SUNNY     35  21  56 W6        30.49S WCI  30
MOAB/CANYONLAN SUNNY     41  11  29 E3        30.44S
DELTA          SUNNY     34  21  60 N3        30.46R
PRICE          SUNNY     35  11  36 MISG      30.42R
RICHFIELD      SUNNY     28  23  80 CALM      30.48S
ROOSEVELT      SUNNY     32  16  51 E3        30.48S
VERNAL         SUNNY     33  14  45 W3        30.46R

$$

UTZ013>016-019>022-027-181900-

SOUTHERN UTAH

CITY           SKY/WX    TMP DP  RH WIND       PRES   REMARKS
BRYCE CANYON   SUNNY     30  10  43 CALM      30.40S
CEDAR CITY     SUNNY     33  20  58 CALM      30.41R
MILFORD        SUNNY     35  25  66 N7        30.43F WCI  29
ST GEORGE      CLEAR     47  13  25 SW3       30.42F
HANKSVILLE     SUNNY     37  12  35 CALM      30.49S
KANAB          SUNNY     45   9  23 NE12      30.44S
BLANDING         N/A     40   3  21 S5        30.48S

$$

REGIONAL REPORTS     COLORADO/ARIZONA

CITY           SKY/WX    TMP DP  RH WIND       PRES   REMARKS
CRAIG, CO      SUNNY     21  16  81 CALM      30.44S
GRAND JUNCTION SUNNY     38  21  50 SE9       30.47R WCI  31
RIFLE, CO      SUNNY     29  20  69 CALM      30.47F
MONTROSE, CO   SUNNY     33  19  56 W5        30.47F WCI  29
CORTEZ, CO     SUNNY     38  15  39 SE3       30.39R
COLORADO CITY    N/A     48  12  23 E6G16     30.41S
PAGE, AZ       SUNNY     45  13  27 N5        30.43R
GRAND CANYON   SUNNY     41   2  19 NE15      30.38R
KINGMAN, AZ    SUNNY     54  17  23 N13       30.32R
FLAGSTAFF, AZ  SUNNY     38   2  22 E15       30.37R WCI  29

$$

REGIONAL REPORTS    NEVADA/IDAHO/WYOMING

CITY           SKY/WX    TMP DP  RH WIND       PRES   REMARKS
LAS VEGAS, NV  SUNNY     55  13  18 N7        30.38S
ELY, NY        SUNNY     27  15  61 VRB3      30.41S
ELKO, NV       SUNNY     30  21  69 E5        30.40F WCI  25
POCATELLO, ID  CLOUDY    37  21  52 S10       30.44R WCI  30
BURLEY, ID     SUNNY     38  22  52 S10       30.42R WCI  31
FORT BRIDGER,  CLEAR     23  16  74 W9        30.41  WCI  13
EVANSTON, WY   CLOUDY    19  16  88 W10       30.38S WCI   7
ROCK SPRINGS,  SUNNY     23  15  71 SW23      30.36R WCI   7

$$




USA.gov is the U.S. government's official web portal to all federal, state and local government web resources and services.